| time (UTC) | temp F | wind direction | speed knots | gust knots | rain 1hr in | rain 24hr in | rain mn in | humidity % | barometer mb |
| 20260504150615 | 58 | 135 | 0.0 | 0.0 | 0.00 | 0.00 | 0.00 | 55 | 1011.9 |
| 20260504140835 | 56 | 135 | 0.0 | 0.0 | 0.00 | 0.00 | 0.00 | 52 | 1011.6 |
| 20260504090136 | 59 | 135 | 0.0 | 0.0 | 0.00 | 0.00 | 0.00 | 47 | 1011.2 |
| 20260504081336 | 61 | 202 | 0.0 | 0.9 | 0.00 | 0.00 | 0.00 | 46 | 1011.1 |
| 20260504080336 | 61 | 202 | 0.0 | 0.0 | 0.00 | 0.00 | 0.00 | 46 | 1011.2 |
| 20260504050545 | 65 | 202 | 0.0 | 0.0 | 0.00 | 0.00 | 0.00 | 46 | 1011.2 |
| 20260504045559 | 66 | 202 | 0.0 | 0.9 | 0.00 | 0.00 | 0.00 | 47 | 1011.2 |
| 20260504044601 | 66 | 202 | 0.0 | 0.0 | 0.00 | 0.00 | 0.00 | 47 | 1011.2 |
| 20260504044446 | 66 | 202 | 0.0 | 0.9 | 0.00 | 0.00 | 0.00 | 47 | 1011.3 |
| 20260504043446 | 67 | 202 | 0.0 | 0.0 | 0.00 | 0.00 | 0.00 | 47 | 1011.1 |
| 20260504043402 | 67 | 202 | 0.9 | 0.9 | 0.00 | 0.00 | 0.00 | 46 | 1011.1 |
| 20260504041444 | 67 | 202 | 0.9 | 1.7 | 0.00 | 0.00 | 0.00 | 47 | 1011.3 |
| 20260504040445 | 67 | 202 | 0.0 | 1.7 | 0.00 | 0.00 | 0.00 | 47 | 1011.2 |
| 20260504035501 | 67 | 225 | 1.7 | 1.7 | 0.00 | 0.00 | 0.00 | 47 | 1011.1 |
| 20260504034443 | 67 | 225 | 0.0 | 0.9 | 0.00 | 0.00 | 0.00 | 47 | 1011.1 |
| 20260504033444 | 67 | 225 | 0.9 | 0.9 | 0.00 | 0.00 | 0.00 | 48 | 1011.1 |
| 20260504033400 | 67 | 225 | 0.0 | 0.9 | 0.00 | 0.00 | 0.00 | 48 | 1011.0 |
| 20260504032346 | 68 | 225 | 0.9 | 0.9 | 0.00 | 0.00 | 0.00 | 48 | 1011.0 |
| 20260504032244 | 69 | 225 | 0.9 | 0.9 | 0.00 | 0.00 | 0.00 | 48 | 1010.9 |
| 20260504031244 | 69 | 225 | 0.9 | 1.7 | 0.00 | 0.00 | 0.00 | 48 | 1010.9 |
| 20260504030344 | 70 | 225 | 1.7 | 2.6 | 0.00 | 0.00 | 0.00 | 49 | 1011.0 |
| 20260504024346 | 70 | 225 | 1.7 | 2.6 | 0.00 | 0.00 | 0.00 | 49 | 1011.0 |
| 20260504023344 | 70 | 225 | 2.6 | 2.6 | 0.00 | 0.00 | 0.00 | 49 | 1011.0 |
| 20260504022346 | 70 | 225 | 1.7 | 2.6 | 0.00 | 0.00 | 0.00 | 50 | 1011.0 |
| 20260504021444 | 70 | 225 | 1.7 | 2.6 | 0.00 | 0.00 | 0.00 | 49 | 1011.1 |
| 20260504020500 | 71 | 225 | 1.7 | 2.6 | 0.00 | 0.00 | 0.00 | 51 | 1011.2 |
| 20260504015545 | 71 | 225 | 0.9 | 2.6 | 0.00 | 0.00 | 0.00 | 51 | 1011.4 |
| 20260504014544 | 71 | 225 | 2.6 | 3.5 | 0.00 | 0.00 | 0.00 | 51 | 1011.3 |
| 20260504013643 | 72 | 225 | 2.6 | 3.5 | 0.00 | 0.00 | 0.00 | 51 | 1011.5 |
| 20260504012644 | 72 | 225 | 1.7 | 1.7 | 0.00 | 0.00 | 0.00 | 52 | 1011.6 |
| 20260504010644 | 73 | 202 | 0.9 | 2.6 | 0.00 | 0.00 | 0.00 | 51 | 1011.6 |
| 20260504005701 | 73 | 202 | 0.9 | 2.6 | 0.00 | 0.00 | 0.00 | 51 | 1011.7 |
| 20260504004751 | 74 | 202 | 0.9 | 1.7 | 0.00 | 0.00 | 0.00 | 53 | 1011.7 |
| 20260504003745 | 74 | 202 | 0.0 | 0.9 | 0.00 | 0.00 | 0.00 | 53 | 1011.8 |
| 20260504002746 | 74 | 180 | 0.0 | 0.9 | 0.00 | 0.00 | 0.00 | 53 | 1011.9 |
| 20260504001843 | 74 | 180 | 0.0 | 0.9 | 0.00 | 0.00 | 0.00 | 53 | 1012.1 |
| 20260504000844 | 74 | 180 | 0.0 | 0.9 | 0.00 | 0.00 | 0.00 | 53 | 1012.1 |
| 20260503235845 | 74 | 202 | 0.9 | 1.7 | 0.00 | 0.00 | 0.00 | 54 | 1012.1 |
| 20260503234845 | 74 | 202 | 0.9 | 1.7 | 0.00 | 0.00 | 0.00 | 54 | 1012.2 |
| 20260503233944 | 75 | 202 | 0.9 | 0.9 | 0.00 | 0.00 | 0.00 | 54 | 1012.3 |
| 20260503232943 | 75 | 225 | 0.9 | 1.7 | 0.00 | 0.00 | 0.00 | 54 | 1012.5 |
| 20260503231945 | 75 | 225 | 1.7 | 2.6 | 0.00 | 0.00 | 0.00 | 54 | 1012.6 |
| 20260503230946 | 75 | 187 | 0.0 | 0.9 | 0.00 | 0.00 | 0.00 | 55 | 1012.6 |
| 20260503225944 | 75 | 63 | 0.0 | 2.6 | 0.00 | 0.00 | 0.00 | 56 | 1012.7 |
| 20260503225845 | 75 | 87 | 0.0 | 0.9 | 0.00 | 0.00 | 0.00 | 56 | 1012.7 |
| 20260503224844 | 75 | 119 | 0.0 | 0.0 | 0.00 | 0.00 | 0.00 | 55 | 1012.8 |
| 20260503224744 | 75 | 67 | 0.0 | 0.0 | 0.00 | 0.00 | 0.00 | 56 | 1012.8 |
| 20260503223744 | 76 | 152 | 0.0 | 0.0 | 0.00 | 0.00 | 0.00 | 56 | 1012.8 |
| 20260503221847 | 76 | 67 | 0.0 | 0.9 | 0.00 | 0.00 | 0.00 | 57 | 1013.2 |
| 20260503220943 | 76 | 154 | 0.0 | 0.9 | 0.00 | 0.00 | 0.00 | 57 | 1013.1 |
| 20260503215943 | 76 | 202 | 0.0 | 0.9 | 0.00 | 0.00 | 0.00 | 58 | 1013.3 |
| 20260503214001 | 76 | 202 | 0.9 | 1.7 | 0.00 | 0.00 | 0.00 | 59 | 1013.6 |
| 20260503211001 | 76 | 225 | 0.9 | 1.7 | 0.00 | 0.00 | 0.00 | 61 | 1013.8 |
| 20260503205059 | 75 | 201 | 0.0 | 0.9 | 0.00 | 0.00 | 0.00 | 61 | 1013.9 |
| 20260503204144 | 75 | 202 | 0.9 | 1.7 | 0.00 | 0.00 | 0.00 | 62 | 1014.1 |
| 20260503203243 | 75 | 225 | 1.7 | 2.6 | 0.00 | 0.00 | 0.00 | 63 | 1014.1 |
| 20260503202245 | 74 | 105 | 0.0 | 1.7 | 0.00 | 0.00 | 0.00 | 64 | 1014.3 |
| 20260503201244 | 73 | 176 | 0.0 | 0.9 | 0.00 | 0.00 | 0.00 | 64 | 1014.5 |
| 20260503200245 | 73 | 61 | 0.9 | 2.6 | 0.00 | 0.00 | 0.00 | 65 | 1014.5 |
| 20260503195244 | 73 | 179 | 0.9 | 3.5 | 0.00 | 0.00 | 0.00 | 65 | 1014.6 |
| 20260503194343 | 72 | 213 | 1.7 | 2.6 | 0.00 | 0.00 | 0.00 | 66 | 1014.6 |
| 20260503193347 | 72 | 157 | 0.0 | 0.9 | 0.00 | 0.00 | 0.00 | 66 | 1014.7 |
| 20260503191500 | 71 | 90 | 0.9 | 1.7 | 0.00 | 0.00 | 0.00 | 68 | 1014.9 |
| 20260503185643 | 70 | 112 | 0.0 | 0.0 | 0.00 | 0.00 | 0.00 | 68 | 1014.9 |
| 20260503184644 | 69 | 45 | 0.0 | 0.0 | 0.00 | 0.00 | 0.00 | 70 | 1015.0 |
| 20260503183701 | 69 | 135 | 0.0 | 0.9 | 0.00 | 0.00 | 0.00 | 69 | 1015.3 |
| 20260503182744 | 69 | 180 | 0.0 | 0.9 | 0.00 | 0.00 | 0.00 | 70 | 1015.4 |
| 20260503181744 | 68 | 164 | 0.0 | 0.9 | 0.00 | 0.00 | 0.00 | 71 | 1015.4 |
| 20260503180746 | 67 | 135 | 0.0 | 0.9 | 0.00 | 0.00 | 0.00 | 71 | 1015.6 |
| 20260503175843 | 67 | 67 | 0.0 | 0.9 | 0.00 | 0.00 | 0.00 | 71 | 1015.7 |
| 20260503174845 | 66 | 67 | 0.0 | 0.9 | 0.00 | 0.00 | 0.00 | 71 | 1015.8 |
| 20260503173845 | 65 | 180 | 0.0 | 0.0 | 0.00 | 0.00 | 0.00 | 71 | 1015.9 |
| 20260503172843 | 65 | 90 | 0.0 | 0.9 | 0.00 | 0.00 | 0.00 | 72 | 1016.1 |
| 20260503170844 | 63 | 22 | 0.0 | 0.0 | 0.00 | 0.00 | 0.00 | 72 | 1016.1 |